ROMMA est une association bénévole à but non lucratif. Votre soutien est indispensable : ADHERER à ROMMA ou FAIRE un DON

Voiron - (38, Isère)

Voironnais (300 m)   Longitude: 05° 35' E   Latitude: 45° 23' N Station partenaire n°109
 

Détail journalier du     <<     >>

Température Precipitation Humidité Pression Vent Dir Rafale Dir. rafale Ensol.
Heure (°C) (mm) (%) (hPa) (km/h) (km/h) (min)
01:00 7.8049102519N58N0
02:00 7.3052102515NNO42N0
03:00 7.4054102515NNO35N0
04:00 6.705810258N37NNE0
05:00 7.1058102514NNO40NNE0
06:00 6.506010254SE21NNE0
07:00 6.9059102610NNE47N0
08:00 5.6066102615N39N0
09:00 7.705410269N31N0
10:00 9.6046102610NE34ENE60
11:00 10.904310279NE29ENE60
12:00 10.8042102615ENE48E60
13:00 12.0041102615ENE47E60
14:00 12.8036102514NE35NNE60
15:00 13.8033102513NE37ENE60
16:00 14.1032102515NE48E60
17:00 13.8033102511NE34ENE60
18:00 13.1033102512NE42ENE60
19:00 12.1035102611NE40ENE30
20:00 11.203710266N26NNO0
21:00 10.703910279N29NNE0
22:00 9.9042102715N39N0
23:00 9.5045102715N39NE0
minuit 8.204910287N31NNO0

Graphique du 26-03-2019

 

Serveur OMMA